﻿測定場所 (Monitoring sites),日付 (Measurement date),時間 (Measurement time),線量率 最大値 (max) μGy/h,線量率 最小値 (min) μGy/h,線量率 平均値 (average) μGy/h,
足立 (Adachi),2013-05-19,23:01～24:00,0.0637,0.0573,0.0596,
足立 (Adachi),2013-05-19,22:01～23:00,0.0637,0.0547,0.0582,
足立 (Adachi),2013-05-19,21:01～22:00,0.0612,0.0520,0.0562,
足立 (Adachi),2013-05-19,20:01～21:00,0.0575,0.0512,0.0542,
足立 (Adachi),2013-05-19,19:01～20:00,0.0579,0.0507,0.0543,
足立 (Adachi),2013-05-19,18:01～19:00,0.0586,0.0504,0.0540,
足立 (Adachi),2013-05-19,17:01～18:00,0.0568,0.0508,0.0537,
足立 (Adachi),2013-05-19,16:01～17:00,0.0564,0.0505,0.0535,
足立 (Adachi),2013-05-19,15:01～16:00,0.0575,0.0506,0.0534,
足立 (Adachi),2013-05-19,14:01～15:00,0.0559,0.0508,0.0538,
足立 (Adachi),2013-05-19,13:01～14:00,0.0570,0.0497,0.0533,
足立 (Adachi),2013-05-19,12:01～13:00,0.0573,0.0500,0.0537,
足立 (Adachi),2013-05-19,11:01～12:00,0.0574,0.0501,0.0534,
足立 (Adachi),2013-05-19,10:01～11:00,0.0572,0.0505,0.0535,
足立 (Adachi),2013-05-19,09:01～10:00,0.0575,0.0508,0.0534,
足立 (Adachi),2013-05-19,08:01～09:00,0.0574,0.0503,0.0540,
足立 (Adachi),2013-05-19,07:01～08:00,0.0567,0.0508,0.0540,
足立 (Adachi),2013-05-19,06:01～07:00,0.0571,0.0511,0.0537,
足立 (Adachi),2013-05-19,05:01～06:00,0.0557,0.0494,0.0534,
足立 (Adachi),2013-05-19,04:01～05:00,0.0566,0.0504,0.0534,
足立 (Adachi),2013-05-19,03:01～04:00,0.0569,0.0502,0.0534,
足立 (Adachi),2013-05-19,02:01～03:00,0.0574,0.0509,0.0536,
足立 (Adachi),2013-05-19,01:01～02:00,0.0582,0.0500,0.0537,
足立 (Adachi),2013-05-19,00:01～01:00,0.0573,0.0502,0.0534,
足立 (Adachi),2013-05-18,23:01～24:00,0.0573,0.0498,0.0536,
足立 (Adachi),2013-05-18,22:01～23:00,0.0570,0.0500,0.0536,
足立 (Adachi),2013-05-18,21:01～22:00,0.0573,0.0507,0.0530,
足立 (Adachi),2013-05-18,20:01～21:00,0.0578,0.0499,0.0532,
足立 (Adachi),2013-05-18,19:01～20:00,0.0565,0.0502,0.0532,
足立 (Adachi),2013-05-18,18:01～19:00,0.0569,0.0500,0.0532,
足立 (Adachi),2013-05-18,17:01～18:00,0.0585,0.0497,0.0527,
足立 (Adachi),2013-05-18,16:01～17:00,0.0558,0.0500,0.0532,
足立 (Adachi),2013-05-18,15:01～16:00,0.0567,0.0504,0.0535,
足立 (Adachi),2013-05-18,14:01～15:00,0.0586,0.0510,0.0535,
足立 (Adachi),2013-05-18,13:01～14:00,0.0569,0.0503,0.0534,
足立 (Adachi),2013-05-18,12:01～13:00,0.0562,0.0485,0.0531,
足立 (Adachi),2013-05-18,11:01～12:00,0.0557,0.0498,0.0529,
足立 (Adachi),2013-05-18,10:01～11:00,0.0560,0.0497,0.0527,
足立 (Adachi),2013-05-18,09:01～10:00,0.0573,0.0496,0.0533,
足立 (Adachi),2013-05-18,08:01～09:00,0.0549,0.0495,0.0522,
足立 (Adachi),2013-05-18,07:01～08:00,0.0561,0.0493,0.0527,
足立 (Adachi),2013-05-18,06:01～07:00,0.0557,0.0494,0.0526,
足立 (Adachi),2013-05-18,05:01～06:00,0.0558,0.0496,0.0530,
足立 (Adachi),2013-05-18,04:01～05:00,0.0557,0.0495,0.0527,
足立 (Adachi),2013-05-18,03:01～04:00,0.0570,0.0501,0.0527,
足立 (Adachi),2013-05-18,02:01～03:00,0.0570,0.0497,0.0528,
足立 (Adachi),2013-05-18,01:01～02:00,0.0561,0.0493,0.0529,
足立 (Adachi),2013-05-18,00:01～01:00,0.0558,0.0489,0.0529,
足立 (Adachi),2013-05-17,23:01～24:00,0.0563,0.0496,0.0528,
足立 (Adachi),2013-05-17,22:01～23:00,0.0569,0.0502,0.0528,
足立 (Adachi),2013-05-17,21:01～22:00,0.0561,0.0494,0.0527,
足立 (Adachi),2013-05-17,20:01～21:00,0.0560,0.0484,0.0524,
足立 (Adachi),2013-05-17,19:01～20:00,0.0555,0.0486,0.0525,
足立 (Adachi),2013-05-17,18:01～19:00,0.0563,0.0489,0.0524,
足立 (Adachi),2013-05-17,17:01～18:00,0.0566,0.0488,0.0524,
足立 (Adachi),2013-05-17,16:01～17:00,0.0557,0.0487,0.0523,
足立 (Adachi),2013-05-17,15:01～16:00,0.0551,0.0490,0.0522,
足立 (Adachi),2013-05-17,14:01～15:00,0.0553,0.0486,0.0520,
足立 (Adachi),2013-05-17,13:01～14:00,0.0540,0.0481,0.0517,
足立 (Adachi),2013-05-17,12:01～13:00,0.0557,0.0493,0.0524,
足立 (Adachi),2013-05-17,11:01～12:00,0.0552,0.0494,0.0520,
足立 (Adachi),2013-05-17,10:01～11:00,0.0548,0.0485,0.0518,
足立 (Adachi),2013-05-17,09:01～10:00,0.0536,0.0481,0.0513,
足立 (Adachi),2013-05-17,08:01～09:00,0.0555,0.0490,0.0513,
足立 (Adachi),2013-05-17,07:01～08:00,0.0559,0.0477,0.0513,
足立 (Adachi),2013-05-17,06:01～07:00,0.0549,0.0474,0.0506,
足立 (Adachi),2013-05-17,05:01～06:00,0.0537,0.0473,0.0504,
足立 (Adachi),2013-05-17,04:01～05:00,0.0534,0.0472,0.0508,
足立 (Adachi),2013-05-17,03:01～04:00,0.0529,0.0479,0.0509,
足立 (Adachi),2013-05-17,02:01～03:00,0.0551,0.0482,0.0515,
足立 (Adachi),2013-05-17,01:01～02:00,0.0554,0.0488,0.0525,
足立 (Adachi),2013-05-17,00:01～01:00,0.0604,0.0504,0.0550,
足立 (Adachi),2013-05-16,23:01～24:00,0.0713,0.0570,0.0632,
足立 (Adachi),2013-05-16,22:01～23:00,0.0728,0.0639,0.0692,
足立 (Adachi),2013-05-16,21:01～22:00,0.0701,0.0615,0.0647,
足立 (Adachi),2013-05-16,20:01～21:00,0.0802,0.0625,0.0684,
足立 (Adachi),2013-05-16,19:01～20:00,0.0824,0.0717,0.0768,
足立 (Adachi),2013-05-16,18:01～19:00,0.0753,0.0574,0.0665,
足立 (Adachi),2013-05-16,17:01～18:00,0.0631,0.0523,0.0581,
足立 (Adachi),2013-05-16,16:01～17:00,0.0571,0.0495,0.0534,
足立 (Adachi),2013-05-16,15:01～16:00,0.0564,0.0505,0.0538,
足立 (Adachi),2013-05-16,14:01～15:00,0.0574,0.0502,0.0534,
足立 (Adachi),2013-05-16,13:01～14:00,0.0559,0.0504,0.0533,
足立 (Adachi),2013-05-16,12:01～13:00,0.0559,0.0503,0.0530,
足立 (Adachi),2013-05-16,11:01～12:00,0.0586,0.0505,0.0529,
足立 (Adachi),2013-05-16,10:01～11:00,0.0575,0.0494,0.0524,
足立 (Adachi),2013-05-16,09:01～10:00,0.0550,0.0483,0.0525,
足立 (Adachi),2013-05-16,08:01～09:00,0.0558,0.0490,0.0528,
足立 (Adachi),2013-05-16,07:01～08:00,0.0560,0.0494,0.0527,
足立 (Adachi),2013-05-16,06:01～07:00,0.0564,0.0495,0.0523,
足立 (Adachi),2013-05-16,05:01～06:00,0.0564,0.0502,0.0532,
足立 (Adachi),2013-05-16,04:01～05:00,0.0569,0.0511,0.0535,
足立 (Adachi),2013-05-16,03:01～04:00,0.0570,0.0502,0.0536,
足立 (Adachi),2013-05-16,02:01～03:00,0.0569,0.0509,0.0541,
足立 (Adachi),2013-05-16,01:01～02:00,0.0561,0.0504,0.0536,
足立 (Adachi),2013-05-16,00:01～01:00,0.0563,0.0505,0.0535,
足立 (Adachi),2013-05-15,23:01～24:00,0.0575,0.0497,0.0538,
足立 (Adachi),2013-05-15,22:01～23:00,0.0567,0.0500,0.0532,
足立 (Adachi),2013-05-15,21:01～22:00,0.0565,0.0486,0.0532,
足立 (Adachi),2013-05-15,20:01～21:00,0.0567,0.0506,0.0533,
足立 (Adachi),2013-05-15,19:01～20:00,0.0562,0.0497,0.0530,
足立 (Adachi),2013-05-15,18:01～19:00,0.0555,0.0496,0.0525,
足立 (Adachi),2013-05-15,17:01～18:00,0.0557,0.0502,0.0529,
足立 (Adachi),2013-05-15,16:01～17:00,0.0580,0.0490,0.0530,
足立 (Adachi),2013-05-15,15:01～16:00,0.0567,0.0496,0.0530,
足立 (Adachi),2013-05-15,14:01～15:00,0.0581,0.0497,0.0531,
足立 (Adachi),2013-05-15,13:01～14:00,0.0560,0.0497,0.0528,
足立 (Adachi),2013-05-15,12:01～13:00,0.0557,0.0501,0.0527,
足立 (Adachi),2013-05-15,11:01～12:00,0.0561,0.0497,0.0529,
足立 (Adachi),2013-05-15,10:01～11:00,0.0559,0.0496,0.0529,
足立 (Adachi),2013-05-15,09:01～10:00,0.0561,0.0493,0.0528,
足立 (Adachi),2013-05-15,08:01～09:00,0.0563,0.0490,0.0524,
足立 (Adachi),2013-05-15,07:01～08:00,0.0556,0.0486,0.0521,
足立 (Adachi),2013-05-15,06:01～07:00,0.0552,0.0501,0.0526,
足立 (Adachi),2013-05-15,05:01～06:00,0.0559,0.0498,0.0526,
足立 (Adachi),2013-05-15,04:01～05:00,0.0573,0.0497,0.0529,
足立 (Adachi),2013-05-15,03:01～04:00,0.0549,0.0496,0.0526,
足立 (Adachi),2013-05-15,02:01～03:00,0.0565,0.0494,0.0529,
足立 (Adachi),2013-05-15,01:01～02:00,0.0562,0.0485,0.0525,
足立 (Adachi),2013-05-15,00:01～01:00,0.0570,0.0499,0.0529,
足立 (Adachi),2013-05-14,23:01～24:00,0.0549,0.0502,0.0528,
足立 (Adachi),2013-05-14,22:01～23:00,0.0552,0.0493,0.0529,
足立 (Adachi),2013-05-14,21:01～22:00,0.0571,0.0491,0.0530,
足立 (Adachi),2013-05-14,20:01～21:00,0.0555,0.0495,0.0528,
足立 (Adachi),2013-05-14,19:01～20:00,0.0553,0.0473,0.0528,
足立 (Adachi),2013-05-14,18:01～19:00,0.0555,0.0495,0.0524,
足立 (Adachi),2013-05-14,17:01～18:00,0.0569,0.0494,0.0530,
足立 (Adachi),2013-05-14,16:01～17:00,0.0580,0.0501,0.0531,
足立 (Adachi),2013-05-14,15:01～16:00,0.0564,0.0494,0.0527,
足立 (Adachi),2013-05-14,14:01～15:00,0.0560,0.0499,0.0525,
足立 (Adachi),2013-05-14,13:01～14:00,0.0569,0.0490,0.0527,
足立 (Adachi),2013-05-14,12:01～13:00,0.0555,0.0502,0.0528,
足立 (Adachi),2013-05-14,11:01～12:00,0.0564,0.0498,0.0528,
足立 (Adachi),2013-05-14,10:01～11:00,0.0572,0.0498,0.0531,
足立 (Adachi),2013-05-14,09:01～10:00,0.0564,0.0500,0.0527,
足立 (Adachi),2013-05-14,08:01～09:00,0.0557,0.0501,0.0525,
足立 (Adachi),2013-05-14,07:01～08:00,0.0561,0.0488,0.0525,
足立 (Adachi),2013-05-14,06:01～07:00,0.0561,0.0470,0.0516,
足立 (Adachi),2013-05-14,05:01～06:00,0.0558,0.0484,0.0521,
足立 (Adachi),2013-05-14,04:01～05:00,0.0547,0.0494,0.0526,
足立 (Adachi),2013-05-14,03:01～04:00,0.0555,0.0480,0.0524,
足立 (Adachi),2013-05-14,02:01～03:00,0.0572,0.0488,0.0524,
足立 (Adachi),2013-05-14,01:01～02:00,0.0563,0.0492,0.0529,
足立 (Adachi),2013-05-14,00:01～01:00,0.0557,0.0500,0.0526,
足立 (Adachi),2013-05-13,23:01～24:00,0.0559,0.0496,0.0525,
足立 (Adachi),2013-05-13,22:01～23:00,0.0558,0.0486,0.0523,
足立 (Adachi),2013-05-13,21:01～22:00,0.0552,0.0488,0.0521,
足立 (Adachi),2013-05-13,20:01～21:00,0.0563,0.0482,0.0523,
足立 (Adachi),2013-05-13,19:01～20:00,0.0555,0.0486,0.0523,
足立 (Adachi),2013-05-13,18:01～19:00,0.0555,0.0490,0.0519,
足立 (Adachi),2013-05-13,17:01～18:00,0.0554,0.0483,0.0518,
足立 (Adachi),2013-05-13,16:01～17:00,0.0553,0.0484,0.0517,
足立 (Adachi),2013-05-13,15:01～16:00,0.0554,0.0487,0.0515,
足立 (Adachi),2013-05-13,14:01～15:00,0.0560,0.0486,0.0519,
足立 (Adachi),2013-05-13,13:01～14:00,0.0557,0.0488,0.0517,
足立 (Adachi),2013-05-13,12:01～13:00,0.0542,0.0482,0.0517,
足立 (Adachi),2013-05-13,11:01～12:00,0.0545,0.0489,0.0515,
足立 (Adachi),2013-05-13,10:01～11:00,0.0557,0.0475,0.0516,
足立 (Adachi),2013-05-13,09:01～10:00,0.0552,0.0486,0.0526,
足立 (Adachi),2013-05-13,08:01～09:00,0.0576,0.0495,0.0527,
足立 (Adachi),2013-05-13,07:01～08:00,0.0555,0.0492,0.0525,
足立 (Adachi),2013-05-13,06:01～07:00,0.0558,0.0486,0.0518,
足立 (Adachi),2013-05-13,05:01～06:00,0.0554,0.0487,0.0525,
足立 (Adachi),2013-05-13,04:01～05:00,0.0556,0.0497,0.0523,
足立 (Adachi),2013-05-13,03:01～04:00,0.0558,0.0487,0.0519,
足立 (Adachi),2013-05-13,02:01～03:00,0.0564,0.0484,0.0518,
足立 (Adachi),2013-05-13,01:01～02:00,0.0546,0.0493,0.0519,
足立 (Adachi),2013-05-13,00:01～01:00,0.0553,0.0487,0.0520,
